Regional Weather Roundup
Issued by NWS

Home | Current Version | Previous Version | Text Only | Print | Product List | Glossary On
Versions: 1 2 3 4 5 6 7 8 9 10 11 12 13 14 15 16 17 18 19 20 21 22 23 24 25 26 27 28 29 30 31 32 33 34 35 36 37 38 39 40 41 42 43 44 45 46 47 48 49 50
000
ASUS42 KFFC 270603
RWRGA
WEATHER ROUNDUP FOR GEORGIA
NATIONAL WEATHER SERVICE PEACHTREE CITY GA
100 AM EST THU NOV 27 2014

NOTE: "FAIR" INDICATES FEW OR NO CLOUDS BELOW 12,000 FEET WITH NO
SIGNIFICANT WEATHER AND/OR OBSTRUCTIONS TO VISIBILITY.

* = USE WITH CAUTION. THE STATIONS MARKED WITH AN ASTERISK MAY NOT
REPORT WEATHER SUCH AS PRECIPITATION, FOG, OR THUNDER AND ARE NOT
QUALITY CONTROLLED BY NWS.

THE REMARK "TC" DENOTES TEMPERATURE READING IN DEGREES CELSIUS.

GAZ001>058-270700-
NORTH GEORGIA

CITY           SKY/WX    TMP DP  RH WIND       PRES   REMARKS
ATLANTA        PTCLDY    49  29  46 W13G21    30.07R
6HR MIN TEMP:  45; 6HR MAX TEMP:  49;

ATHENS         CLOUDY    43  30  60 S5        30.03F
6HR MIN TEMP:  40; 6HR MAX TEMP:  47;

CHAMBLEE       PTCLDY    46  28  49 SW13      30.05S
6HR MIN TEMP:  40; 6HR MAX TEMP:  46;

PEACHTREE CITY CLOUDY    50  30  46 W10G16    30.10R
6HR MIN TEMP:  38; 6HR MAX TEMP:  50;

ROME           CLEAR     46  29  51 W12G22    30.08R
6HR MIN TEMP:  46; 6HR MAX TEMP:  51; 6HR PCP: TRACE;

WEST ATLANTA   CLEAR     46  29  51 W7        30.07R
6HR MIN TEMP:  41; 6HR MAX TEMP:  48;

GAINESVILLE    MOCLDY    47  27  45 SW13G18   30.02S
6HR MIN TEMP:  44; 6HR MAX TEMP:  48; 6HR PCP: TRACE;

CARTERSVILLE   CLEAR     48  25  40 VRB7      30.09R
6HR MIN TEMP:  41; 6HR MAX TEMP:  50;



CITY           SKY/WX    TMP DP  RH WIND       PRES   REMARKS
DALTON*        PTCLDY    45  32  61 W12G22    30.06R
MARIETTA       CLEAR     47  30  51 W15       30.05R
$$

GAZ059>098-102>109-270700-
CENTRAL GEORGIA

CITY           SKY/WX    TMP DP  RH WIND       PRES   REMARKS
AUGUSTA-BUSH   CLOUDY    42  34  73 CALM      30.09F
6HR MIN TEMP:  36; 6HR MAX TEMP:  47;

AUGUSTA-DANIEL CLOUDY    46  29  51 SW3       30.09F
6HR MIN TEMP:  45; 6HR MAX TEMP:  51;

COLUMBUS       CLEAR     47  32  56 W5        30.14R
6HR MIN TEMP:  44; 6HR MAX TEMP:  51;

MACON          PTCLDY    48  32  53 SW9G18    30.09F
6HR MIN TEMP:  41; 6HR MAX TEMP:  48;

ROBINS AFB     PTCLDY    44  33  67 S6        30.09F


CITY           SKY/WX    TMP DP  RH WIND       PRES   REMARKS
LAGRANGE*      MOCLDY    53  35  50 NW18G24   30.12S
SYLVANIA*      CLEAR     43  38  81 CALM      30.14S
MILLEDGEVILLE* PTCLDY    43  36  75 CALM      30.07F
$$

GAZ099>101-110>166-270700-
SOUTH GEORGIA

CITY           SKY/WX    TMP DP  RH WIND       PRES   REMARKS
SAVANNAH       CLEAR     45  35  68 W5        30.16S
6HR MIN TEMP:  45; 6HR MAX TEMP:  52;

VALDOSTA       CLEAR     40  36  86 CALM      30.20S
6HR MIN TEMP:  39; 6HR MAX TEMP:  45;

ALMA           CLEAR     41  35  79 S5        30.17S
6HR MIN TEMP:  39; 6HR MAX TEMP:  47;

ST SIMONS      CLEAR     47  37  68 W3        30.19S
6HR MIN TEMP:  47; 6HR MAX TEMP:  53;

FT STEWART     CLEAR     43  36  75 SW6       30.15S
ALBANY         CLEAR     44  37  76 SW6       30.18F
HUNTER AFB     CLEAR     43  36  76 SW7       30.14S
MOODY AFB      CLEAR     40  36  84 S5        30.18F
BRUNSWICK      CLEAR     45  36  70 W7        30.19F


CITY           SKY/WX    TMP DP  RH WIND       PRES   REMARKS
BAINBRIDGE*    CLEAR     45  43  93 SW3       30.19S
MOULTRIE*      CLEAR     45  37  76 SW3       30.18F
VIDALIA*       CLEAR     43  36  75 SW6       30.15S
WAYCROSS*      CLEAR     46  38  76 W3        30.18F
DOUGLAS*       CLEAR     45  34  65 SW5       30.18F
$$


USA.gov is the U.S. government's official web portal to all federal, state and local government web resources and services.